This demonstration page uses our WeatherBlox Daily Observations layout. Learn more.

36.17497, -115.13722

Hourly Observations for January 6, 2018

Temp ( °F °C ) Dew Point ( °F °C ) Humidity (%) Winds ( mph kmh ) Pressure ( in mb ) Visibility ( mi km ) Precip ( " mm )
12:53 am 00:53 Clear 50 10 22 -5.6 33 33 NNW 3 6 30.21 1023 10 16.0934 0 0
1:53 am 01:53 Clear 49 9.4 23 -5 36 36 NW 3 6 30.2 1023 10 16.0934 0 0
2:53 am 02:53 Clear 49 9.4 24 -4.4 38 38 NW 5 7 30.19 1022 10 16.0934 0 0
3:53 am 03:53 Clear 49 9.4 23 -5 36 36 NW 6 9 30.17 1022 10 16.0934 0 0
4:53 am 04:53 Clear 49 9.4 23 -5 36 36 WNW 3 6 30.16 1021 10 16.0934 0 0
5:53 am 05:53 Clear 49 9.4 22 -5.6 35 35 N 3 6 30.15 1021 10 16.0934 0 0
6:53 am 06:53 Sunny 49 9.4 22 -5.6 35 35 Calm 30.16 1021 10 16.0934 0 0
7:53 am 07:53 Sunny 50 10 21 -6.1 32 32 N 6 9 30.15 1021 10 16.0934 0 0
8:53 am 08:53 Sunny 51 10.6 20 -6.7 29 29 Calm 30.15 1021 10 16.0934 0 0
9:53 am 09:53 Sunny 54 12.2 21 -6.1 28 28 NNW 3 6 30.15 1021 10 16.0934 0 0
10:53 am 10:53 Sunny 58 14.4 20 -6.7 23 23 Calm 30.12 1020 10 16.0934 0 0
11:53 am 11:53 Sunny 59 15 18 -7.8 20 20 E 8 13 30.07 1018 10 16.0934 0 0
12:53 pm 12:53 Sunny 62 16.7 19 -7.2 19 19 E 8 13 30.05 1018 10 16.0934 0 0
1:53 pm 13:53 Sunny 63 17.2 19 -7.2 18 18 E 13 20 30.02 1017 10 16.0934 0 0
2:53 pm 14:53 Sunny 64 17.8 20 -6.7 18 18 ESE 12 19 30.01 1016 10 16.0934 0 0
3:53 pm 15:53 Sunny 63 17.2 20 -6.7 19 19 E 7 11 30.03 1017 10 16.0934 0 0
4:53 pm 16:53 Clear 62 16.7 20 -6.7 20 20 ESE 3 6 30.03 1017 10 16.0934 0 0
5:53 pm 17:53 Mostly Clear 56 13.3 21 -6.1 26 26 Calm 30.05 1018 10 16.0934 0 0
6:53 pm 18:53 Mostly Clear 53 11.7 23 -5 31 31 NW 5 7 30.08 1019 10 16.0934 0 0
7:53 pm 19:53 Cloudy 54 12.2 24 -4.4 31 31 Calm 30.09 1019 10 16.0934 0 0
8:53 pm 20:53 Cloudy 57 13.9 24 -4.4 28 28 N 5 7 30.12 1020 10 16.0934 0 0
9:53 pm 21:53 Cloudy 56 13.3 27 -2.8 33 33 E 3 6 30.16 1021 10 16.0934 0 0
10:53 pm 22:53 Mostly Clear 58 14.4 39 3.9 50 50 NNW 6 9 30.16 1021 10 16.0934 0 0
11:53 pm 23:53 Clear 54 12.2 40 4.4 59 59 NNW 7 11 30.14 1021 10 16.0934 0 0

Powered by AerisWeather